Hourly Data Report for November 19, 2018

VICTORIA UNIVERSITY CS
BRITISH COLUMBIA
Current Station Operator: ECCC - MSC

48°27'25.200" N
123°18'16.600" W
60.10 m
1018598
71783
WYJ

Download Data

Hourly Data (November 2018)
Hourly Data Report for November 19, 2018
TIME
LST
Temp Definition
°C
Dew Point Definition
°C
Rel Hum Definition
%
Precip. Amount Definition
mm

Wind Dir Definition
10's deg

Wind Spd Definition
km/h
Visibility Definition
km
Stn Press Definition
kPa
Hmdx Definition


Wind Chill Definition


Weather Definition


00:00 5.0 2.0 81 0.0 33 7   101.45     LegendNANA
01:00 5.1 1.9 80 0.0 33 6   101.43     LegendNANA
02:00 4.8 2.0 82 0.0 35 6   101.41     LegendNANA
03:00 4.2 2.0 85 0.0 32 6   101.42     LegendNANA
04:00 4.5 2.4 86 0.0 34 7   101.39     LegendNANA
05:00 4.2 2.1 86 0.0 36 7   101.38     LegendNANA
06:00 3.4 2.1 91 0.0 32 7   101.38     LegendNANA
07:00 3.9 2.7 92 0.0 34 8   101.36     LegendNANA
08:00 3.7 2.6 92 0.0 33 8   101.39     LegendNANA
09:00 4.9 3.2 88 0.0 35 6   101.41     LegendNANA
10:00 6.5 4.2 86 0.0 36 10   101.39     LegendNANA
11:00 7.2 4.5 83 0.0 36 11   101.37     LegendNANA
12:00 7.8 4.7 81 0.0 1 12   101.31     LegendNANA
13:00 8.2 4.7 79 0.0 35 12   101.26     LegendNANA
14:00 8.0 4.5 78 0.0 36 12   101.20     LegendNANA
15:00 7.9 4.6 79 0.0 36 8   101.14     LegendNANA
16:00 7.2 4.7 84 0.0 35 8   101.11     LegendNANA
17:00 6.7 4.9 88 0.0 36 6   101.10     LegendNANA
18:00 6.3 5.1 92 0.0 34 6   101.09     LegendNANA
19:00 6.0 4.0 87 0.0 34 6   101.06     LegendNANA
20:00 6.0 3.5 84 0.0 35 7   101.04     LegendNANA
21:00 6.3 2.9 79 0.0 34 7   101.02     LegendNANA
22:00 6.2 2.9 79 0.0 34 7   101.01     LegendNANA
23:00 6.6 2.9 77 0.0 36 9   101.00     LegendNANA

Notes on Data Quality.

Legend

  • E = Estimated
  • M = Missing
  • NA = Not Available*
  • [empty] = Indicates an unobserved value
Date modified: